Winfield, KS

2:16 PM CDT on April 25, 2017 (GMT -0500)
Strother

Weather History for KWLD - August, 2013

Change the Weather History Date:

Sunday, August 18, 2013

  Actual Average Record
Temperature  
Mean Temperature 72 °F -  
Max Temperature 82 °F 90 °F 106 °F (2006)
Min Temperature 62 °F 67 °F 62 °F (2013)
Cooling Degree Days 6    
Growing Degree Days 22 (Base 50)    
Moisture  
Dew Point 63 °F    
Average Humidity 74    
Maximum Humidity 90    
Minimum Humidity 56    
Precipitation  
Precipitation 0.00 in - - ()
Sea Level Pressure  
Sea Level Pressure 30.10 in    
Wind  
Wind Speed 5 mph (SE)    
Max Wind Speed 10 mph    
Max Gust Speed -    
Visibility 10 miles    
Events      
Averages and records for this station are not official NWS values.
T = Trace of Precipitation, MM = Missing Value Source: NWS Daily Summary

Daily Weather History Graph

Daily Weather History Graph

Search for Another Location

Airport or City:

Trip Planner

Search our weather history database for the weather conditions in past years. The results will help you decide how hot, cold, wet, or windy it might be!

Date:

Astronomy

Aug. 18, 2013 Rise Set
Actual Time 6:47 AM CDT 8:15 PM CDT
Civil Twilight 6:19 AM CDT 8:43 PM CDT
Nautical Twilight 5:46 AM CDT 9:16 PM CDT
Astronomical Twilight 5:12 AM CDT 9:50 PM CDT
Moon 6:21 PM CDT (8/18) 4:00 AM CDT (8/18)
Length of Visible Light 14h 23m
Length of Day
13h 28m
Waxing Gibbous, 92% of the Moon is Illuminated
Aug 18
Waxing Gibbous
Aug 20
Full
Aug 28
Last Quarter
Sep 5
New
Sep 12
First Quarter

Hourly Weather History & Observations

Time (CDT) Temp. Heat Index Dew Point Humidity Pressure Visibility Wind Dir Wind Speed Gust Speed Precip Events Conditions
12:54 AM 64.0 °F - 60.1 °F 87% 30.12 in 10.0 mi East 4.6 mph - N/A   Clear
1:54 AM 64.0 °F - 60.1 °F 87% 30.11 in 10.0 mi East 3.5 mph - N/A   Partly Cloudy
2:54 AM 64.0 °F - 59.0 °F 84% 30.10 in 10.0 mi Calm Calm - N/A   Clear
3:54 AM 63.0 °F - 59.0 °F 87% 30.10 in 10.0 mi East 4.6 mph - N/A   Partly Cloudy
4:54 AM 63.0 °F - 57.9 °F 84% 30.10 in 9.0 mi East 3.5 mph - N/A   Partly Cloudy
5:54 AM 62.1 °F - 59.0 °F 90% 30.10 in 9.0 mi Calm Calm - N/A   Scattered Clouds
6:54 AM 62.1 °F - 59.0 °F 90% 30.12 in 8.0 mi Calm Calm - N/A   Partly Cloudy
7:54 AM 63.0 °F - 60.1 °F 90% 30.13 in 7.0 mi Calm Calm - N/A   Mostly Cloudy
8:54 AM 66.9 °F - 62.1 °F 84% 30.14 in 8.0 mi East 5.8 mph - N/A   Overcast
9:54 AM 73.0 °F - 64.0 °F 73% 30.15 in 9.0 mi SE 6.9 mph - N/A   Mostly Cloudy
10:54 AM 75.0 °F - 64.0 °F 69% 30.15 in 10.0 mi SE 6.9 mph - N/A   Mostly Cloudy
11:54 AM 77.0 °F - 64.9 °F 66% 30.14 in 10.0 mi SE 6.9 mph - N/A   Clear
12:54 PM 79.0 °F - 64.9 °F 62% 30.12 in 10.0 mi South 9.2 mph - N/A   Clear
1:54 PM 80.1 °F 81.9 °F 64.9 °F 60% 30.10 in 10.0 mi South 8.1 mph - N/A   Clear
2:54 PM 81.0 °F 82.5 °F 64.0 °F 56% 30.08 in 10.0 mi SE 10.4 mph - N/A   Clear
3:54 PM 81.0 °F 82.7 °F 64.9 °F 58% 30.06 in 10.0 mi SE 6.9 mph - N/A   Clear
4:54 PM 81.0 °F 82.7 °F 64.9 °F 58% 30.05 in 10.0 mi South 10.4 mph - N/A   Clear
5:54 PM 81.0 °F 82.5 °F 64.0 °F 56% 30.04 in 10.0 mi SE 10.4 mph - N/A   Clear
6:54 PM 79.0 °F - 63.0 °F 58% 30.04 in 10.0 mi SE 9.2 mph - N/A   Clear
7:54 PM 75.9 °F - 66.0 °F 71% 30.04 in 10.0 mi SE 4.6 mph - N/A   Clear
8:54 PM 73.9 °F - 64.9 °F 73% 30.05 in 10.0 mi SE 5.8 mph - N/A   Clear
9:54 PM 73.0 °F - 64.9 °F 76% 30.07 in 10.0 mi ESE 4.6 mph - N/A   Partly Cloudy
10:54 PM 71.1 °F - 64.9 °F 81% 30.09 in 10.0 mi ESE 3.5 mph - N/A   Partly Cloudy
11:54 PM 70.0 °F - 66.0 °F 87% 30.09 in 10.0 mi ESE 4.6 mph - N/A   Overcast